Other Public Products
Issued by NWS Grand Forks, ND

Home | Current Version | Previous Version | Text Only | Print | Product List | Glossary Off
Versions: 1 2 3 4 5 6 7 8 9 10 11 12 13 14 15 16 17 18 19 20 21 22 23 24 25 26 27 28 29 30 31 32 33 34 35 36 37 38 39 40 41 42 43 44 45 46 47 48 49 50

375
FPUS83 KFGF 190810
OPUFGF
PRAIRIE TO PINES WEATHER ROUNDUP
NATIONAL WEATHER SERVICE EASTERN NORTH DAKOTA/GRAND FORKS ND
200 AM CST THU JAN 19 2017

 **SATELLITE DATA USED TO AUGMENT SKY COVER AT AUTOMATED STATIONS**
 *****  WEATHER ACROSS EASTERN NORTH DAKOTA  *****

CITY           SKY/WX    TMP DP  RH WIND       PRES   REMARKS
GRAND FORKS    FAIR      26  19  74 S14       29.60S WCI  14
GRAND FORKS AF FAIR      24  19  79 S13       29.58F WCI  13
GRAND CITY NWS NOT AVBL
BUXTON         NOT AVBL
DEVILS LAKE    FAIR      31  22  69 S8        29.56R WCI  23
FARGO          FAIR      29  24  82 S12       29.64S WCI  19
WAHPETON ARPT  FAIR      23  21  93 SE8       29.67S WCI  14
$$

 *****  WEATHER ACROSS CENTRAL AND WESTERN NORTH DAKOTA  *****

CITY           SKY/WX    TMP DP  RH WIND       PRES   REMARKS
JAMESTOWN      FAIR      20  17  88 S7        29.57F WCI  11
BISMARCK       FAIR      14   8  77 E6        29.59R WCI   5
MINOT          FAIR      31  24  75 S8        29.51R WCI  23
MINOT AFB      FAIR      32  25  74 NW6       29.50R
GARRISON         N/A     23  18  81 W5        29.53S WCI  17
WILLISTON      FAIR      23  20  88 SW6       29.52F WCI  16
DICKINSON      FAIR      26  18  71 W12       29.51S WCI  16
HETTINGER      FAIR      14  11  87 CALM      29.56F
$$

 *****  OTHER OBSERVATIONS NORTHEAST NORTH DAKOTA  *****

CITY           SKY/WX    TMP DP  RH WIND       PRES   REMARKS
WALHALLA       NOT AVBL
LANGDON        NOT AVBL
CAVALIER         N/A     27  23  86 S12       29.53S WCI  16
GRAFTON        FAIR      23  21  93 S18       29.57F WCI   9
CANDO          NOT AVBL
FORT TOTTEN    NOT AVBL
ROLLA            N/A    N/A N/A N/A MISG        N/A
RUGBY            N/A     23  19  86 S3        29.53S
 ***** THE ABOVE OBSERVATIONS ARE NON NWS ARE NOT QUALITY
        CONTROLLED AND MAY MIS-REPORT RAIN FOR SNOW...
$$

 *****  OTHER OBSERVATIONS SOUTHEAST NORTH DAKOTA *****

CITY           SKY/WX    TMP DP  RH WIND       PRES   REMARKS
COOPERSTOWN    FAIR      23  18  80 S12       29.59F WCI  12
VALLEY CITY    FAIR      25  25 100 S10       29.62S WCI  15
OAKES          NOT AVBL
GWINNER        FAIR      23  23 100 S7        29.63S WCI  15
SHEYENNE NWR     N/A     18  16  91 CALM      29.95S
BUFFALO        NOT AVBL
WYNDMERE       NOT AVBL
 ***** THE ABOVE OBSERVATIONS ARE NON NWS ARE NOT QUALITY
       CONTROLLED AND MAY MIS-REPORT RAIN FOR SNOW...
$$

  *****  WEATHER ACROSS NORTHERN MINNESOTA  *****

CITY           SKY/WX    TMP DP  RH WIND       PRES   REMARKS
FLAG ISLAND    FAIR      19  16  86 S8        29.60R WCI   9
WARROAD        FAIR      30  25  80 S6        29.60S WCI  24
ROSEAU         FAIR      30  25  80 S15       29.59F WCI  19
HALLOCK        FAIR      25  21  86 S18       29.55S WCI  11
THF RVR FALLS  FAIR      27  22  81 S8        29.64R WCI  19
HALSTAD        NOT AVBL
FOSSTON        FAIR      25  19  80 S9        29.65R WCI  15
BAUDETTE       FAIR      29  21  72 S6        29.62F WCI  23
WASKISH        FAIR      32  25  74 S3        29.65S
CROOKSTON      FAIR      28  25  86 S14       29.64S WCI  17
$$
  *****  WEATHER ACROSS CENTRAL AND WEST MINNESOTA  *****

CITY           SKY/WX    TMP DP  RH WIND       PRES   REMARKS
BEMIDJI        FAIR      27  23  86 S6        29.65F WCI  20
PARK RAPIDS    FAIR      24  19  81 S5        29.67S HAZE    WCI  18
WADENA         FOG       21  21 100 SE6       29.69R VSB 1/4 WCI  14
DETROIT LAKES  FAIR      27  25  93 S8        29.66F WCI  18
MOORHEAD       FAIR      27  25  93 S14       29.65F WCI  15
FERGUS FALLS   FAIR      28  28 100 SE13      29.71F FOG     WCI  18
ELBOW LAKE     SNOW      29  29 100 E12       29.69S VSB 1/4 WCI  19
MORRIS MN      HVY SNOW  28  28 100 SE9       29.69S VSB<1/4 WCI  20
STAPLES        SNOW      28  28 100 S8        29.71R VSB 1/4 WCI  20
WHEATON        FOG       32  30  93 SE10      29.69S VSB 1/2 WCI  24
$$
  *****  WEATHER ELSEWHERE ACROSS MINNESOTA  *****

CITY           SKY/WX    TMP DP  RH WIND       PRES   REMARKS
DULUTH         FOG       32  32 100 SW10      29.75S VSB 1/4 WCI  24
INTRNTL FALLS  FAIR      25  20  81 SE5       29.66F WCI  19
ELY            FAIR      23  21  93 SE3       29.72S
CLOQUET        FOG       32  30  93 S6        29.75F VSB 1/2
BRAINERD       FOG       31  31 100 S9        29.73S VSB 1/4 WCI  23
HIBBING        FAIR      26  26 100 S5        29.72F FOG     WCI  20
ALEXANDRIA     FOG       29  29 100 S8        29.71S VSB 1/4 WCI  21
SAINT CLOUD    FOG       30  30 100 SE7       29.76F VSB 1/4 WCI  23
MINNEAPOLIS    FAIR      32  29  88 SE6       29.82S
$$

  *****  WEATHER ACROSS SOUTH DAKOTA  *****

CITY           SKY/WX    TMP DP  RH WIND       PRES   REMARKS
SIOUX FALLS    FAIR      36  35  96 S10       29.74F
BROOKINGS      FAIR      33  32  96 S9        29.71S
WATERTOWN      CLOUDY    27  26  96 S13       29.67S FOG     WCI  16
HURON          FAIR      32  31  96 S13       29.65F WCI  22
SISSETON         N/A     25  24  96 S8        29.64F WCI  16
ABERDEEN       FOG       18  15  88 S3        29.64R VSB 1/4
MITCHELL       FAIR      32  31  96 SE8       29.70S WCI  25
PIERRE         FAIR      18  15  88 SE3       29.59S
MOBRIDGE       FAIR      16  11  80 S5        29.56F WCI   9
RAPID CITY     FAIR      34  23  64 W7        29.56S
$$

  *****  SOME WEATHER IN NEARBY STATES *****

CITY           SKY/WX    TMP DP  RH WIND       PRES   REMARKS
GLASGOW MT     FAIR      26  21  81 SE7       29.48F WCI  18
GREAT FALLS MT FAIR      41  25  53 S13       29.47F
CHEYENNE WY    FAIR      36  15  42 W13       29.65F
SCOTTSBLUFF NE FAIR      27  19  72 N7        29.64S WCI  19
OMAHA NE       FAIR      36  31  82 S12       29.86S
DES MOINES IA  FOG       37  36  96 S7        29.93S VSB 1
DAVENPORT IA   FAIR      31  30  96 SE9       30.01R FOG     WCI  23
CHICAGO IL     CLOUDY    34  33  96 SW8       30.04R FOG
EAU CLAIRE WI  MOCLDY    27  26  96 SE6       29.87S FOG     WCI  20
LA CROSSE WI   CLOUDY    37  34  89 S15       29.94R
$$

  *****  SOME NATIONAL WEATHER *****

CITY           SKY/WX    TMP DP  RH WIND       PRES   REMARKS
LA GUARDIA NY  MOCLDY    42  36  79 NW3       30.02F
RALEIGH NC     FAIR      40  35  83 CALM      30.08R
ATLANTA GA     FAIR      55  51  86 CALM      30.05F
NEW ORLEANS LA CLOUDY    71  70  96 S7        29.98F
OKLAHOMA CITY  CLOUDY    48  45  89 S13       29.88F
ALBUQUERQUE NM FAIR      36  29  75 N5        29.95F
SALT LAKE CITY MOCLDY    26  22  84 NW9       29.84F WCI  17
LOS ANGELES CA MOCLDY    55  49  80 SE8G22    30.02F
BOISE ID       CLOUDY    37  34  89 SE12      29.64F
SEATTLE WA     LGT RAIN  45  43  93 S10       29.40R
$$

*** WEATHER ACROSS MANITOBA...SASKATCHEWAN AND ONTARIO ***
                ***ONTARIO***

CITY           SKY/WX    TMP DP  RH WIND       PRES   REMARKS
GERALDTON      PTCLDY     7   3  85 SE2       29.81S
THUNDER BAY    PTCLDY    16  16 100 W2        29.81F
SIOUX LOOKOUT  PTCLDY    28  23  80 SE6       29.66R WCI  22
TORONTO        CLOUDY    37  34  87 W9        29.99S
BIG TROUT LK   CLOUDY    28  28 100 S14       29.68R WCI  17
PICKLE LAKE    NOT AVBL
DRYDEN         CLOUDY    27  23  86 SE8       29.63F WCI  18
KENORA         PTCLDY    30  23  74 S12       29.59S WCI  21
$$
                *** MANITOBA***

CITY           SKY/WX    TMP DP  RH WIND       PRES   REMARKS
BRANDON        MOCLDY    27  23  86 W9        29.47F WCI  17
DAUPHIN        MOCLDY    39  30  70 W12G18    29.39R
ISLAND LAKE    PTCLDY    30  27  86 SE10      29.45F WCI  21
PILOT MOUND      N/A     25  21  86 S15         N/A  WCI  12
THE PAS        PTCLDY    25  21  86 SE6       29.28R WCI  18
THOMPSON       MOCLDY    30  28  93 E5        29.36F
WINNIPEG       PTCLDY    27  21  80 S21       29.52R WCI  13
LYNN LAKE      CLOUDY    30  30 100 S9        29.28S WCI  22
CHURCHILL      FLURRIES  12  12 100 SE10G17   29.61F WCI  -1
GILLAM         FRZ RAIN  28  27  93 E8        29.47F WCI  20
$$
                ***SASKATCHEWAN***

CITY           SKY/WX    TMP DP  RH WIND       PRES   REMARKS
ESTEVAN        CLEAR     25  23  93 SW10      29.48F WCI  15
KINDERSLEY     PTCLDY    32  28  86 SW10      29.31R WCI  24
LLOYDMINSTER   CLEAR     32  28  86 S12       29.21S WCI  23
PRINCE ALBERT  CLOUDY    21  19  93 W2        29.26S
REGINA         CLEAR     32  28  86 SW12      29.41S WCI  23
YORKTON        CLEAR     32  28  86 S12       29.38S WCC1F1C2F2C3F3C4F4C5F5C6F6C7F7C8F8C9F9CaFaCbFbCcFcCdFdCe!



USA.gov is the U.S. government's official web portal to all federal, state and local government web resources and services.